Weather Service Report


637 
ASUS44 KMEG 291610
RWRTN 
TENNESSEE HOURLY STATE WEATHER ROUNDUP
NATIONAL WEATHER SERVICE MEMPHIS TN
1100 AM CDT WED JUL 29 2015

TNZ002-004-019-021-049-052-054-088>092-291700-
WEST TENNESSEE
  
CITY           SKY/WX    TMP DP  RH WIND       PRES   REMARKS
MEMPHIS INTL   PTSUNNY   94  75  54 NW9       30.04F HX 105           
NWS MEMPHIS      N/A     89 N/A N/A MISG        N/A                   
JACKSON        SUNNY     94  77  57 MISG      30.04S HX 108           
DYERSBURG        N/A    N/A N/A N/A MISG        N/A                   
PARIS          SUNNY     86  77  74 CALM      30.05S HX  97           
LEXINGTON      MOSUNNY   90  77  66 VRB3      30.04S HX 102           
$$

TNZ008-025-027-028-033-062-065-066-291700-
NORTH MIDDLE TENNESSEE
  
CITY           SKY/WX    TMP DP  RH WIND       PRES   REMARKS
NASHVILLE      MOSUNNY   85  72  65 SW6       30.05S HX  91           
CLARKSVILLE    CLOUDY    74  71  91 CALM      30.03F                  
SMYRNA         CLOUDY    88  75  65 NW7       30.06R HX  97           
CROSSVILLE     PTSUNNY   84  72  67 NE5       30.10F                  
$$

TNZ061-075-076-078-094-096-097-291700-
SOUTH MIDDLE TENNESSEE
  
CITY           SKY/WX    TMP DP  RH WIND       PRES   REMARKS
FAYETTEVILLE   PTSUNNY   84  72  65 W6        30.07S                  
TULLAHOMA      PTSUNNY   86  70  58 NW5       30.08S HX  90           
WINCHESTER     SUNNY     86  72  62 N5        30.06F HX  92           
MCMINNVILLE    SUNNY     86  77  74 NE5       30.07S HX  97           
COLUMBIA       PTSUNNY   75  75 100 E12       30.08R                  
SHELBYVILLE    CLOUDY    86  75  70 W7        30.08R HX  95           
$$

TNZ017-018-042-046-047-291700-
NORTHEAST TENNESSEE
  
CITY           SKY/WX    TMP DP  RH WIND       PRES   REMARKS
TRI CITIES     MOSUNNY   83  70  64 W3        30.08S                  
ELIZABETHTON   SUNNY     82  72  69 NW5       30.08S                  
$$

TNZ012-013-036-069-073-074-291700-
CENTRAL EAST TENNESSEE
  
CITY           SKY/WX    TMP DP  RH WIND       PRES   REMARKS
KNOXVILLE      MOSUNNY   86  72  62 NE5       30.04S HX  92           
OAK RIDGE      SUNNY     88  72  58 VRB3      30.06S HX  94           
GATLINBURG       N/A     86  72  62 NW3       30.04S HX  92           
MORRISTOWN       N/A     84  72  65 CALM      30.07S                  
$$

TNZ083-085-099-291700-
SOUTHEAST TENNESSEE
  
CITY           SKY/WX    TMP DP  RH WIND       PRES   REMARKS
CHATTANOOGA    PTSUNNY   88  72  58 N5        30.04R HX  94           
$$

SKY/WX REPORTED AS FAIR MEANS FEW OR NO CLOUDS BELOW
12 THOUSAND FEET.



639 
ASUS44 KMEG 291610
RWRMEG
MEMPHIS CWA HOURLY WEATHER ROUNDUP
NATIONAL WEATHER SERVICE MEMPHIS TN
1100 AM CDT WED JUL 29 2015

...WEST TENNESSEE...
  
CITY           SKY/WX    TMP DP  RH WIND       PRES   REMARKS
MEMPHIS INTL   PTSUNNY   94  75  54 NW9       30.04F HX 105           
NWS MEMPHIS      N/A     89 N/A N/A MISG        N/A                   
JACKSON        SUNNY     94  77  57 MISG      30.04S HX 108           
LEXINGTON      MOSUNNY   90  77  66 VRB3      30.04S HX 102           
DYERSBURG        N/A    N/A N/A N/A MISG        N/A                   
PARIS          SUNNY     86  77  74 CALM      30.05S HX  97           


...EASTERN ARKANSAS...
  
CITY           SKY/WX    TMP DP  RH WIND       PRES   REMARKS
JONESBORO      PTSUNNY   89  78  70 NW7       30.03S HX 103           
WEST MEMPHIS   PTSUNNY   90  80  72 W5        30.03S HX 107           
BATESVILLE     SUNNY     91  75  59 W6        30.05F HX 102           
NEWPORT        MOSUNNY   93  78  61 NW8       30.05F HX 108           
WALNUT RIDGE   MOSUNNY   91  75  59 NW9       30.03S HX 102           
BLYTHEVILLE    MOSUNNY   92  82  72 W6        30.03S HX 114           
SEARCY         SUNNY     93  78  61 VRB3      30.06F HX 108           
STUTTGART      SUNNY     95  75  52 W8        30.06S HX 107           
PINE BLUFF     SUNNY     94  73  50 NW8       30.06S HX 103           
MONTICELLO     SUNNY     93  74  53 NW8       30.05F HX 103           


...NORTH MISSISSIPPI...
  
CITY           SKY/WX    TMP DP  RH WIND       PRES   REMARKS
TUPELO         MOSUNNY   92  76  59 N3        30.04F HX 104           
OLIVE BRANCH   MOSUNNY   91  75  59 NW10      30.05S HX 102           
TUNICA         MOSUNNY   93  75  55 W7        30.05S HX 104           
CLARKSDALE     MOSUNNY   91  79  66 NW6       30.05F HX 107           
CORINTH        MOSUNNY   90  77  66 NW6       30.04S HX 102           
GREENWOOD      MOSUNNY   91  74  57 NE3       30.05S HX 100           
COLUMBUS       PTSUNNY   87  78  72 N5        30.04S HX 100           
STARKVILLE     PTSUNNY   90  75  62 NW6       30.05S HX 100           
GOLDEN TRIANGL PTSUNNY   93  77  59 NW8       30.04S HX 107           


...SOUTHEAST MISSOURI...
  
CITY           SKY/WX    TMP DP  RH WIND       PRES   REMARKS
WEST PLAINS    SUNNY     90  73  57 VRB6      30.11S HX  98           
POPLAR BLUFF   MOSUNNY   92  79  65 NW6       30.01S HX 108           
CAPE GIRARDEAU SUNNY     92  77  61 W6        30.00F HX 105           


...NORTHWEST ALABAMA...
  
CITY           SKY/WX    TMP DP  RH WIND       PRES   REMARKS
MUSCLE SHOALS  MOSUNNY   91  71  51 CALM      30.06F HX  97           


...MIDDLE TENNESSEE...
  
CITY           SKY/WX    TMP DP  RH WIND       PRES   REMARKS
NASHVILLE      MOSUNNY   85  72  65 SW6       30.05S HX  91           
CLARKSVILLE    CLOUDY    74  71  91 CALM      30.03F                  
COLUMBIA       PTSUNNY   75  75 100 E12       30.08R                  


...WESTERN KENTUCKY...
  
CITY           SKY/WX    TMP DP  RH WIND       PRES   REMARKS
PADUCAH        SUNNY     92  78  63 NW6       30.01S HX 107           
FORT CAMPBELL  CLOUDY    74  72  92 SW3       30.03F                  


...CENTRAL ARKANSAS...
  
CITY           SKY/WX    TMP DP  RH WIND       PRES   REMARKS
LITTLE ROCK    MOSUNNY   96  72  45 NW8       30.06S HX 104           


SKY/WX REPORTED AS FAIR MEANS FEW OR NO CLOUDS BELOW
12 THOUSAND FEET.


Return to Home page


Western Regional Climate Center, wrcc@dri.edu